Wind_Speed
49 57 59 59 58 58 57 57 56 55 55 55 54 52 51 49 46 45 45 44 43 42 41 38 36 37 37 35 35 36 36 34 31 30 29 29 28 28 27 26 24 22 21 19 17 17 17 17 17 17 15 14 13 12 12 12 12 11 10 10 11 10 11 11 12 12 13 13 14 14 14 14 15 15 15 16 16 17 17 18 18 18 18 18 18 18
51 58 58 57 57 58 59 59 57 56 56 56 55 54 52 50 47 46 46 45 44 43 41 40 39 40 39 37 38 38 36 33 31 30 30 30 30 29 28 26 24 23 21 19 18 19 18 18 18 18 16 15 14 14 14 13 13 12 12 12 12 12 12 13 13 13 14 15 15 15 16 16 17 17 17 17 18 19 19 20 20 20 20 20 20 20
51 55 57 55 57 59 60 60 57 56 57 57 57 56 54 51 49 48 48 47 46 44 43 42 42 41 40 39 40 39 36 34 33 32 32 32 31 30 28 26 25 23 21 20 21 21 20 20 20 19 17 16 16 15 14 14 14 14 15 14 14 14 14 15 15 15 16 16 16 17 18 18 18 19 19 20 20 21 21 22 22 22 22 22 22 23
46 51 56 56 58 62 62 61 59 57 58 58 58 57 55 52 51 50 49 48 48 46 45 44 43 43 42 43 42 39 37 36 36 35 34 33 32 31 29 27 25 24 23 22 22 22 21 20 20 20 19 18 17 16 16 16 16 16 17 16 16 16 16 16 17 17 18 18 18 19 19 19 20 21 21 21 22 23 24 24 24 24 24 24 25 25
44 51 55 56 60 64 65 62 60 59 59 59 59 57 55 53 51 50 49 48 48 47 46 45 45 45 45 45 42 39 38 38 38 36 35 33 32 31 30 28 26 25 25 24 23 23 22 21 21 21 20 19 18 18 19 18 18 18 18 18 18 18 18 18 19 19 20 20 20 21 21 21 22 22 22 23 24 25 26 26 26 26 26 27 27 28
46 55 53 54 62 65 66 65 61 59 60 60 59 57 55 53 51 50 49 49 49 48 47 46 48 47 46 46 42 39 40 40 39 38 36 34 34 33 31 29 28 27 26 25 25 24 23 22 22 21 21 21 20 21 21 20 19 19 19 20 19 19 20 20 21 21 21 22 22 23 23 23 24 24 25 26 26 27 27 27 28 28 29 29 30 30
44 55 54 53 62 67 67 67 62 59 60 60 59 57 55 53 51 51 51 50 50 49 48 48 49 47 46 45 42 41 42 41 40 39 37 36 36 34 32 30 29 29 28 27 26 26 25 24 23 22 23 23 22 22 22 21 21 21 21 21 21 21 21 22 23 23 23 23 24 24 24 25 25 26 27 28 28 29 29 30 30 31 31 32 32 33
40 50 55 53 60 67 68 68 64 60 61 61 59 57 55 53 52 52 51 51 51 49 48 49 50 49 47 46 45 44 43 42 41 39 38 37 36 34 33 32 31 30 30 29 28 27 26 26 25 25 24 24 24 24 23 23 22 22 22 22 22 23 23 24 25 25 25 25 25 25 25 26 27 28 28 29 30 30 30 32 33 33 33 34 35 35
42 45 50 51 57 65 67 66 64 61 61 60 57 56 55 53 52 51 50 51 51 51 51 51 51 51 49 47 46 46 45 43 41 39 38 37 35 35 34 33 32 32 31 30 29 29 28 28 27 26 26 26 26 25 24 24 24 24 24 24 24 25 25 26 26 26 26 26 26 26 27 27 29 29 30 31 31 32 33 34 34 35 35 36 37 37
47 44 45 48 54 61 64 66 64 61 61 59 56 56 55 53 53 52 51 51 52 53 53 52 52 53 51 48 48 48 46 44 41 39 39 38 37 36 35 33 33 33 33 32 31 30 30 29 28 28 27 27 27 26 26 25 25 25 26 26 26 26 27 27 27 27 27 27 27 28 28 29 30 31 31 32 32 33 34 34 35 36 37 37 38 39
51 45 42 44 50 58 65 68 65 62 60 58 56 56 55 54 54 54 54 53 54 56 55 54 54 54 54 51 49 49 46 44 42 41 40 39 38 36 35 35 35 35 34 33 32 31 31 31 30 29 29 28 28 28 27 26 26 26 26 27 27 27 27 28 28 28 28 28 29 29 30 30 31 31 32 33 34 34 35 35 36 37 38 39 39 40
52 48 41 40 44 57 68 70 66 64 61 58 56 56 55 55 55 55 55 56 58 59 56 55 55 56 57 54 50 49 47 44 44 43 41 39 38 37 37 37 37 37 35 34 33 32 32 32 31 31 30 30 30 29 28 27 27 27 27 27 28 28 28 28 28 29 29 29 30 30 31 31 31 32 33 34 34 35 35 36 37 38 39 40 41 42
51 49 43 38 42 55 69 72 69 67 65 61 59 58 56 56 57 57 58 59 60 60 57 56 56 58 59 55 51 49 47 45 44 43 42 41 40 39 39 39 39 38 36 35 35 34 34 33 33 32 32 31 31 30 30 29 28 28 29 29 29 29 29 28 29 29 29 30 30 31 31 32 33 33 34 35 35 36 37 38 38 39 40 41 42 43
50 50 44 39 41 52 66 74 72 71 70 67 64 62 59 59 60 60 60 61 62 62 59 58 58 60 60 56 52 49 46 46 45 43 42 41 41 41 40 40 39 38 38 37 36 36 35 35 34 34 33 32 32 31 31 30 30 30 30 30 30 30 29 29 29 29 30 30 30 31 32 33 34 35 36 36 37 38 38 39 40 41 42 42 43 44
46 49 46 41 41 48 60 70 73 72 71 69 66 62 59 60 60 60 60 61 62 61 59 58 59 61 61 56 52 49 46 45 44 43 42 42 42 42 42 41 40 39 39 38 37 37 36 36 35 35 34 33 33 32 32 32 32 32 31 31 31 30 30 30 30 30 30 31 31 32 33 34 35 36 37 38 38 39 40 41 42 43 43 44 45 45
41 45 45 42 41 44 56 68 73 70 67 66 65 62 59 59 59 58 58 58 59 59 59 59 60 60 59 55 51 49 47 45 44 43 43 43 43 43 42 42 41 41 41 40 39 38 38 37 36 35 35 34 34 33 33 33 33 33 33 32 32 31 31 31 31 31 31 32 32 33 34 35 36 37 38 39 39 40 41 42 43 44 45 46 46 47
39 41 44 44 42 43 53 66 73 71 68 67 66 64 61 59 59 58 57 58 58 59 60 61 61 60 58 55 52 50 49 47 45 44 43 43 43 43 42 42 42 42 42 42 41 40 39 39 38 36 36 35 35 34 34 34 34 34 33 33 33 32 32 32 32 32 32 33 33 34 35 36 37 38 38 39 40 41 42 43 44 45 46 47 47 48
39 41 43 44 44 44 51 62 71 72 70 68 67 65 61 59 59 60 59 60 60 62 64 63 62 61 59 58 56 52 50 47 45 44 43 44 43 43 43 43 43 43 43 43 42 41 40 40 39 38 37 37 36 35 35 34 34 34 35 35 34 34 33 33 33 34 34 34 34 35 36 37 38 38 39 40 41 42 43 44 45 46 47 47 48 49
38 40 42 44 45 47 52 62 70 71 70 68 66 64 61 59 61 62 61 62 62 64 65 65 63 62 61 59 56 52 48 46 45 44 43 43 43 44 44 45 45 44 44 44 43 42 42 41 40 40 39 38 37 36 35 35 35 35 36 36 35 35 35 35 35 35 35 35 36 37 37 38 38 39 40 41 42 43 44 45 46 46 47 48 48 49
39 40 41 43 45 48 54 62 68 71 72 69 66 63 61 60 62 62 61 62 62 62 64 64 64 63 61 58 54 50 47 45 44 44 43 42 43 44 45 46 46 46 45 44 43 43 43 42 42 41 40 39 38 37 36 36 36 36 37 36 36 36 36 36 36 36 36 37 37 38 38 39 40 41 42 43 44 45 45 46 46 47 47 48 48 49
40 40 41 43 45 49 52 55 62 69 72 70 68 66 64 64 64 62 62 62 62 62 63 63 64 63 60 56 51 48 46 45 44 43 42 43 43 43 44 45 46 46 46 45 44 44 43 43 43 42 41 40 39 39 38 37 37 37 37 37 37 37 38 38 38 38 38 38 38 39 40 41 42 43 44 45 45 46 46 47 47 48 48 49 49 50
41 41 42 43 45 47 48 51 58 67 69 67 67 66 65 64 63 62 62 64 64 63 63 63 64 63 59 53 49 47 45 45 44 44 43 43 43 43 44 45 46 46 47 46 46 46 45 45 44 43 42 41 41 40 39 39 39 39 39 39 39 40 40 40 40 40 40 40 41 41 43 44 44 45 45 46 47 47 48 48 49 49 50 50 51 51
41 41 42 43 44 45 47 52 58 64 66 65 65 64 62 60 60 60 62 63 62 62 62 63 63 63 59 53 49 47 45 43 43 43 43 43 44 44 44 45 45 45 46 46 47 47 47 46 45 44 43 43 42 42 41 41 41 41 41 41 41 42 42 42 41 41 42 42 43 44 45 46 46 46 47 47 48 49 49 50 50 51 51 51 52 53
40 41 42 43 43 44 46 50 56 61 64 65 66 65 63 62 60 58 59 59 58 58 59 60 62 63 60 55 50 48 45 42 41 42 42 43 44 44 44 44 44 45 45 46 47 46 46 45 45 44 44 43 43 43 43 43 42 42 42 43 43 43 43 43 43 43 44 45 45 46 47 47 47 47 48 49 50 50 51 51 51 52 52 53 54 54
40 41 43 44 45 46 47 49 53 57 60 64 67 68 66 64 61 58 58 58 57 59 59 60 64 64 60 56 52 48 44 42 41 41 41 41 42 42 43 43 43 44 45 46 46 46 46 45 45 44 44 43 43 43 42 42 43 43 43 43 43 43 44 44 44 45 46 46 47 47 47 47 48 49 50 50 51 52 52 52 52 53 54 54 55 56
37 39 41 43 45 46 45 45 47 51 56 62 67 69 67 64 61 58 57 57 58 60 61 63 66 63 56 53 51 47 44 43 42 41 40 40 41 41 42 43 43 44 44 45 45 46 46 46 45 44 43 42 42 42 42 42 43 43 43 43 44 44 45 45 46 46 47 47 48 48 48 49 50 51 52 52 53 53 53 53 54 55 56 57 57 58
36 37 38 39 40 40 39 41 42 46 53 59 63 65 64 62 59 56 55 56 56 57 59 62 64 59 52 51 49 45 42 42 41 39 39 39 40 42 43 43 44 43 44 44 44 44 44 44 43 43 42 42 43 43 43 43 43 43 43 44 44 45 46 46 47 48 48 48 48 49 50 51 52 52 53 53 53 54 54 55 56 57 58 59 60 61
36 36 36 35 36 37 38 39 39 40 44 50 55 59 59 56 55 53 54 56 56 56 60 62 60 58 54 50 48 43 39 40 40 40 41 41 41 43 43 43 43 43 43 44 44 43 43 42 42 42 43 44 44 44 44 44 44 44 44 45 45 46 47 48 49 49 49 49 50 51 52 53 53 53 54 54 55 55 56 57 59 60 61 62 63 63
36 35 34 35 37 38 40 40 40 39 40 43 48 53 54 53 52 53 55 56 56 59 64 62 58 59 57 50 47 44 40 40 42 44 45 43 42 41 41 41 42 42 43 44 44 43 43 43 43 44 45 45 45 45 45 45 45 45 46 47 48 49 50 50 50 51 51 52 53 53 54 54 54 54 55 56 56 57 59 60 61 62 63 64 64 65
36 36 36 36 37 39 41 41 41 42 42 43 45 48 52 53 53 54 56 57 58 61 65 61 58 60 58 50 47 46 43 43 44 45 45 43 41 41 41 42 43 44 44 44 44 44 44 45 45 46 46 46 46 46 46 46 47 48 49 50 51 51 52 52 52 53 53 54 54 55 55 55 55 56 57 58 59 60 61 62 63 64 64 65 66 67
37 38 39 38 39 41 41 42 43 44 44 46 46 47 50 52 55 58 61 62 63 65 66 63 62 64 59 51 48 47 45 45 45 44 44 43 43 44 45 46 47 47 47 46 46 47 47 47 48 48 48 48 48 48 49 49 50 50 51 52 52 53 53 54 54 54 55 55 55 55 56 56 57 58 59 60 62 62 63 63 64 65 66 67 68 69
40 41 41 41 42 43 42 43 44 44 45 48 49 49 49 51 53 55 58 61 63 64 64 64 66 66 59 50 46 46 48 48 48 46 46 46 47 47 48 49 49 50 51 50 50 50 49 49 49 50 50 51 51 51 51 52 52 52 53 53 54 54 55 55 55 55 56 56 56 56 57 58 59 60 61 62 63 63 63 64 65 66 68 69 70 71
42 42 42 42 42 43 44 44 44 44 47 48 46 44 45 48 50 51 52 54 55 56 59 60 61 60 54 47 46 47 50 51 50 49 49 50 50 51 51 51 50 50 51 51 51 51 51 51 51 51 51 52 52 52 53 53 54 54 54 55 55 56 56 56 56 56 57 57 57 58 59 60 61 62 62 63 63 64 65 66 67 69 70 71 72 73
40 40 41 40 40 41 42 42 43 46 47 41 36 37 41 44 46 48 48 48 49 51 53 54 54 53 51 48 48 49 51 52 52 52 52 52 53 53 53 52 51 50 50 51 51 52 52 52 52 52 52 52 52 53 53 54 54 55 55 55 56 56 56 57 57 57 58 58 59 60 61 62 62 63 63 63 64 66 67 68 70 71 72 72 73 73
38 39 40 39 40 42 42 42 45 45 39 32 32 36 40 41 42 43 44 45 47 49 50 51 51 51 51 50 49 49 50 51 53 53 53 54 54 54 53 52 51 50 50 50 51 51 52 52 53 53 53 53 54 54 55 55 55 55 56 56 56 57 57 58 58 59 60 60 61 62 62 63 63 64 65 66 67 68 69 70 71 72 72 73 73 73
42 42 43 43 43 43 43 45 44 38 32 30 32 34 34 35 36 38 40 41 43 45 47 47 46 46 48 48 48 49 51 52 54 55 54 54 54 53 52 51 51 51 51 51 51 52 53 54 54 55 55 55 56 56 56 57 57 57 57 58 58 59 59 60 60 61 61 62 62 63 63 64 65 66 67 68 69 70 71 71 72 72 72 72 72 72
47 47 46 46 46 44 44 44 41 37 36 34 31 31 32 32 35 38 40 40 39 40 41 40 40 42 44 45 47 49 51 53 55 55 53 53 53 52 51 51 51 52 52 52 53 54 55 55 55 56 56 56 57 57 57 58 58 59 59 59 60 60 60 61 61 62 62 63 64 65 66 67 68 68 69 70 70 71 71 71 71 71 71 71 71 72
46 46 45 45 46 44 44 45 43 42 39 33 30 32 34 34 36 39 42 41 38 39 40 39 39 41 43 45 47 49 52 54 54 51 50 52 53 53 52 52 53 54 54 54 55 55 55 55 56 56 56 56 57 57 58 58 59 59 60 60 61 61 62 62 63 63 64 65 66 67 68 68 69 69 70 70 70 71 70 70 70 70 70 71 71 72
44 45 45 46 47 46 46 47 46 44 38 32 31 34 36 36 36 39 43 41 36 36 39 40 40 43 45 47 49 50 52 53 51 47 48 52 54 54 55 55 55 55 55 56 56 56 56 56 56 56 56 56 57 57 58 59 60 60 61 61 62 63 63 64 65 65 66 67 68 69 69 69 69 69 69 69 69 69 69 69 70 70 70 71 71 72
42 43 45 46 46 45 45 45 45 42 38 36 35 34 34 35 36 39 41 39 34 34 36 37 39 41 42 45 47 50 52 51 49 49 51 54 55 55 56 56 56 56 56 56 57 57 57 57 57 57 57 57 58 59 60 61 61 62 62 63 64 64 65 66 66 67 68 69 69 69 69 68 68 68 68 68 68 69 69 69 69 70 71 71 72 72
43 43 44 44 43 43 43 43 42 40 37 36 36 35 34 35 37 39 38 35 35 35 35 36 38 38 38 40 43 45 47 49 50 53 54 55 55 56 57 57 57 57 57 57 57 58 58 58 59 59 59 60 61 61 62 63 63 63 64 64 65 66 66 67 68 68 68 68 67 67 67 67 67 67 67 67 68 68 69 69 70 71 71 71 71 71
46 45 45 45 44 43 42 42 42 40 37 37 39 40 40 40 40 38 34 34 37 37 37 39 39 38 40 41 41 42 44 46 48 51 52 54 55 56 57 57 58 58 58 58 59 59 59 60 60 60 61 61 62 62 63 64 64 65 66 66 66 67 67 67 66 66 66 65 65 65 65 65 65 66 67 68 68 69 69 70 70 70 70 70 69 68
45 45 45 44 43 43 43 43 43 41 37 37 41 43 43 41 39 36 35 36 39 40 41 42 41 41 42 43 43 44 44 45 46 48 49 51 52 54 55 56 57 58 59 59 60 60 61 61 62 62 62 63 63 64 65 66 66 66 66 66 65 64 64 63 63 63 63 63 63 64 64 65 66 66 67 68 68 69 69 69 69 69 68 67 67 67
47 46 45 44 44 45 45 44 41 39 37 37 39 41 42 41 40 40 41 41 41 43 45 46 45 45 43 43 45 46 46 46 47 48 48 49 50 51 53 54 55 57 58 59 60 61 61 62 63 63 64 64 64 65 65 65 64 64 63 62 62 61 61 61 62 62 63 63 63 64 65 65 66 67 67 68 68 68 68 67 67 66 66 66 67 69
46 44 44 43 44 44 43 40 38 38 39 40 40 42 43 43 44 45 45 45 44 45 45 46 47 47 45 44 45 46 47 48 48 48 50 50 50 51 51 52 54 55 56 57 58 58 59 60 61 61 62 62 62 62 62 61 61 61 60 60 60 61 61 62 62 63 63 64 64 65 65 65 66 66 66 67 66 66 66 65 65 66 66 68 69 70
43 43 43 43 43 44 43 41 40 42 43 44 45 45 45 46 46 46 46 46 46 46 46 46 47 47 47 46 45 46 47 48 49 50 50 51 51 52 52 53 54 54 55 56 56 57 58 58 59 59 60 60 60 60 60 60 60 60 61 61 61 62 62 63 63 63 63 63 64 64 64 64 65 65 65 65 65 65 65 65 66 67 68 69 70 71
44 44 45 46 46 47 45 44 44 45 46 47 48 49 50 50 49 49 49 49 49 48 48 48 48 49 49 49 48 48 48 49 49 50 51 51 52 53 53 54 55 55 56 57 57 58 59 59 60 60 60 61 61 61 61 61 61 61 61 62 62 62 62 62 62 62 62 62 62 62 63 63 64 64 64 64 64 65 66 66 67 68 69 70 72 74
46 47 48 49 50 50 49 48 48 49 50 50 51 53 54 55 54 54 53 53 52 52 51 51 51 51 51 51 52 51 51 51 51 51 52 53 53 54 54 55 56 56 57 58 59 59 59 60 60 60 61 61 61 61 61 61 61 61 61 60 60 60 60 60 60 60 61 61 62 62 62 62 63 63 63 64 65 66 67 67 68 69 70 73 74 76
51 52 52 52 53 54 52 51 51 52 53 53 54 56 57 58 58 58 57 56 56 55 54 54 53 53 53 53 54 54 53 53 53 52 53 54 54 55 56 57 57 58 59 59 60 60 60 60 60 60 60 60 60 60 60 60 60 60 59 59 59 59 59 60 60 61 61 61 61 61 61 62 62 63 64 65 66 66 67 68 70 72 73 75 75 76
55 55 55 55 57 56 53 51 52 54 55 55 56 58 59 60 61 61 61 60 59 59 58 57 56 56 56 56 56 55 55 54 54 53 53 54 54 55 56 56 57 58 58 59 59 59 59 59 59 59 59 59 59 59 59 59 59 59 59 59 59 60 60 60 61 61 60 60 60 61 61 62 63 64 65 65 66 68 69 71 73 74 74 75 75 76
58 57 57 57 57 56 54 54 55 56 56 57 57 58 60 61 62 63 63 62 62 61 60 59 59 58 58 57 57 56 55 55 54 54 54 54 54 54 55 55 55 55 56 56 56 56 57 57 57 58 58 58 58 59 59 59 59 59 59 59 59 59 59 59 59 59 59 60 60 61 62 63 63 64 66 67 68 70 72 73 73 73 74 74 75 76
Wind_Direction
218 213 211 211 212 212 211 209 208 206 208 211 214 214 213 212 211 209 209 211 211 212 212 213 213 216 215 210 208 209 208 208 205 204 203 204 206 208 209 209 209 210 212 215 217 219 220 220 223 226 226 223 223 226 231 236 241 244 245 247 250 253 256 258 263 268 271 272 273 275 277 278 279 279 281 282 283 284 284 285 286 286 287 288 290 290
218 213 211 211 212 213 211 207 206 206 207 210 212 213 212 211 210 210 211 212 213 213 213 213 213 215 215 212 211 210 208 207 205 205 206 207 209 211 214 215 215 216 217 217 218 219 219 220 223 227 228 227 226 227 231 236 242 247 248 250 252 255 257 258 260 262 265 268 271 274 275 276 278 279 281 281 281 281 282 283 284 286 287 289 290 290
219 214 210 211 213 214 211 207 205 206 208 210 211 211 211 210 209 209 210 211 213 213 213 214 213 215 215 214 213 211 208 207 206 207 209 210 211 213 216 219 221 222 221 219 219 219 219 221 224 228 231 231 231 231 233 237 242 247 250 253 254 255 257 259 261 262 263 267 269 272 274 275 277 278 279 280 280 280 281 282 283 285 287 288 288 287
220 212 209 212 214 214 211 207 206 206 207 210 211 212 211 209 209 210 211 211 213 213 214 215 214 214 215 215 214 211 208 209 208 208 211 213 214 217 219 221 225 227 225 221 221 223 222 224 227 230 232 233 234 235 237 239 241 245 250 254 255 255 257 260 262 264 266 268 270 271 273 274 275 277 278 279 279 279 280 281 283 285 286 285 285 286
217 209 209 213 214 214 211 207 207 206 206 210 211 212 212 210 209 210 212 213 214 215 215 217 216 215 216 216 214 213 211 211 211 210 212 215 217 221 222 224 227 228 227 224 223 226 226 227 230 233 235 236 237 239 240 242 244 246 250 253 256 257 259 261 262 265 267 269 270 271 273 274 275 277 278 278 278 279 280 282 283 284 284 284 285 286
211 208 210 214 215 214 211 207 207 206 207 210 211 211 211 210 209 211 213 214 216 217 217 219 219 216 217 218 215 215 215 214 214 213 212 216 219 222 224 226 228 228 228 226 225 227 228 229 232 236 240 241 241 242 244 246 248 250 252 254 257 259 261 263 263 265 266 268 270 272 273 275 277 278 278 278 279 280 282 283 282 282 283 284 285 285
210 209 213 216 215 214 212 208 207 206 207 210 211 211 212 210 210 211 214 216 217 218 218 220 222 218 218 220 216 216 218 217 217 215 214 217 220 222 225 226 228 229 229 228 227 229 230 231 233 237 241 244 245 247 248 250 251 253 255 257 259 261 263 265 266 267 267 268 270 271 273 275 276 277 277 278 279 281 282 282 281 282 283 284 284 285
214 212 214 217 216 214 213 210 207 206 208 210 210 211 212 211 211 212 214 216 218 219 219 221 223 221 218 219 218 217 218 220 221 219 218 220 222 224 226 226 226 227 228 229 230 231 233 235 236 237 240 243 246 248 250 252 253 255 257 259 260 261 263 265 267 269 269 270 271 272 273 274 274 275 276 277 278 279 280 279 280 282 283 284 284 285
221 217 215 218 218 216 215 212 208 207 208 210 210 211 212 211 211 213 215 218 219 220 220 220 223 222 218 218 221 220 219 221 222 223 224 224 225 226 227 226 225 226 227 229 231 232 235 237 239 241 242 243 245 247 249 251 253 255 257 258 259 261 262 264 266 268 270 271 272 272 272 272 273 273 273 275 276 277 277 278 280 281 282 283 284 285
223 220 216 218 220 218 216 212 209 209 209 211 210 210 212 212 211 213 215 218 221 222 221 220 223 224 219 217 222 223 220 221 223 226 228 228 227 227 228 227 226 227 228 230 231 232 235 239 242 244 245 246 248 249 249 250 252 254 256 258 259 261 262 264 266 268 269 270 271 272 272 272 272 273 274 275 276 276 277 279 280 281 282 283 284 284
223 223 220 218 219 218 214 211 209 209 210 211 211 211 212 212 212 213 215 217 221 221 220 221 223 225 221 217 221 225 223 223 224 225 228 230 229 227 227 228 228 229 230 231 232 234 237 240 242 244 246 248 250 251 252 252 253 255 257 259 260 261 262 263 265 266 268 269 270 271 272 273 274 274 275 276 276 277 279 280 280 281 282 283 284 285
224 224 223 219 218 218 213 209 209 210 211 212 212 211 212 212 212 214 215 217 221 221 220 222 224 226 224 218 219 225 226 225 226 227 228 230 231 229 227 227 228 229 232 233 234 235 238 241 243 245 247 249 250 251 252 253 255 257 259 260 261 261 262 262 264 266 268 269 270 272 273 274 275 276 277 277 278 279 280 281 282 283 283 284 285 286
226 225 223 220 220 219 214 208 207 209 210 212 213 212 212 213 213 213 215 217 221 222 221 223 226 227 225 221 220 223 226 227 228 229 230 230 231 232 231 230 230 231 233 234 236 237 238 241 243 246 249 251 252 252 252 252 254 257 259 260 261 261 263 264 265 267 268 270 272 274 275 276 277 278 279 280 281 281 282 283 283 283 284 285 286 287
226 224 223 221 221 221 215 210 208 210 210 211 214 214 213 213 213 213 215 217 220 223 222 223 226 228 227 224 223 224 225 228 230 231 232 232 232 232 233 233 234 234 235 236 238 239 239 240 242 245 248 251 253 253 253 253 254 255 257 259 260 262 264 265 267 268 270 272 274 275 277 278 279 280 280 281 281 282 283 283 284 284 285 286 287 288
229 226 223 221 221 221 219 214 211 211 212 212 214 215 214 215 215 215 216 218 221 224 225 225 227 229 229 227 226 227 228 228 231 233 234 234 234 234 234 234 235 237 239 240 241 242 242 243 244 245 247 250 252 253 254 254 255 256 258 259 261 263 264 266 268 269 271 273 274 275 276 278 279 279 280 281 282 283 284 284 285 286 287 287 288 289
229 228 226 224 222 221 220 216 211 210 212 213 214 215 215 216 217 218 219 220 223 226 228 228 229 231 232 231 229 230 232 231 231 233 235 236 236 237 237 236 237 238 240 241 243 244 245 246 247 248 249 251 252 253 254 255 256 257 259 260 262 263 264 266 267 269 271 272 273 275 276 276 277 278 279 281 282 283 284 285 286 286 287 287 288 288
226 227 226 226 225 223 221 217 211 209 210 213 214 215 215 216 217 218 219 220 223 227 228 229 230 232 234 234 231 230 232 233 232 232 234 235 237 238 240 240 241 241 241 242 243 244 245 247 248 250 251 252 253 254 256 257 258 259 260 261 263 264 265 266 267 269 270 271 272 273 274 275 276 278 280 282 283 284 284 285 285 285 286 286 287 287
226 226 226 225 225 224 222 218 214 211 211 212 214 215 215 216 217 218 219 220 221 225 227 228 230 231 233 234 232 231 232 233 234 233 233 235 237 239 240 242 243 244 244 244 245 246 247 248 249 251 252 253 254 256 257 259 259 260 261 262 263 264 265 266 268 269 269 270 271 272 273 275 277 278 280 281 282 282 283 283 283 284 285 285 286 286
225 226 226 225 224 223 221 217 214 212 212 213 214 215 216 217 218 218 220 221 221 223 226 228 230 231 232 234 234 234 234 235 237 237 236 236 237 238 240 241 243 245 246 247 248 249 249 250 251 253 254 255 256 258 259 260 261 261 261 262 263 264 265 266 267 267 268 269 271 272 274 275 277 278 279 280 280 281 281 282 283 284 284 285 286 286
222 224 226 226 225 224 221 217 215 214 214 214 214 215 216 218 220 220 221 223 225 226 227 230 231 232 233 235 238 238 238 238 239 239 240 240 239 239 240 242 244 246 247 249 250 251 252 253 253 254 255 256 258 260 261 261 261 261 262 262 263 264 265 266 266 267 268 269 271 273 274 276 277 278 278 279 280 281 282 283 284 284 285 286 286 286
219 220 223 225 226 225 224 222 220 217 215 214 214 215 216 217 220 221 222 223 226 228 229 231 233 233 234 237 240 242 242 242 242 242 243 243 244 243 243 243 244 246 248 249 250 252 252 253 254 255 256 257 259 260 261 262 262 262 262 263 264 265 266 266 267 268 269 270 272 274 275 276 277 277 278 279 280 282 283 284 285 285 286 286 286 286
220 219 222 224 225 226 227 226 221 217 216 215 215 216 217 218 220 221 222 222 224 227 229 232 233 233 234 236 240 243 244 244 243 244 245 245 246 247 246 246 246 246 248 249 250 251 252 253 254 256 257 258 259 260 261 261 261 262 263 264 265 266 266 267 267 268 269 271 273 274 275 276 277 277 279 280 281 283 284 284 285 285 285 285 286 286
221 219 221 224 224 224 226 225 221 217 216 215 216 216 217 219 221 223 224 224 226 228 230 232 234 234 235 237 239 242 244 245 245 246 246 247 247 248 248 248 248 248 248 249 250 251 253 254 255 256 258 259 260 260 261 261 262 263 264 264 265 265 266 266 267 268 270 272 273 275 275 276 277 278 280 281 282 283 283 284 284 284 285 285 285 286
222 220 220 222 223 223 224 224 221 218 216 216 216 217 218 219 221 224 225 226 229 231 231 233 235 235 236 237 239 241 243 245 246 246 247 248 248 249 249 249 249 249 250 250 251 253 254 255 256 257 258 259 259 260 261 262 263 264 264 264 264 265 265 266 267 269 271 272 274 275 275 276 277 279 280 281 282 282 282 283 283 284 284 284 285 285
224 222 221 221 221 221 221 221 221 221 221 220 219 218 219 219 220 222 224 226 228 229 230 232 233 233 235 236 238 241 243 244 246 246 247 248 249 250 251 251 251 251 252 252 253 254 255 256 257 258 258 259 260 261 262 262 263 263 263 263 263 264 265 266 268 270 272 273 273 274 275 276 278 279 280 280 280 281 281 282 282 283 284 284 284 285
228 227 226 225 225 225 225 227 227 226 224 223 221 220 220 221 221 223 225 227 228 228 229 231 231 233 236 237 239 242 243 245 246 247 248 249 250 251 252 252 253 253 253 253 254 255 256 257 258 259 260 261 262 262 262 262 262 262 262 263 264 265 266 268 269 270 271 272 273 274 275 277 278 278 279 279 280 280 281 282 282 283 283 284 285 286
229 230 229 230 232 234 235 237 235 230 226 225 223 222 222 223 224 225 227 229 230 231 232 232 232 235 237 239 241 244 245 246 247 248 249 250 251 251 251 252 252 252 253 254 254 255 256 257 258 259 261 262 262 262 262 262 262 262 263 264 265 266 267 268 269 270 271 272 273 275 276 276 277 277 278 279 280 281 281 282 283 283 284 285 287 288
226 228 228 228 230 233 236 237 236 234 231 229 227 224 224 225 227 228 230 231 232 234 235 234 235 237 238 240 244 247 247 248 249 248 248 248 248 250 251 252 252 253 254 254 255 256 257 258 259 260 260 261 261 261 261 262 262 263 264 265 266 266 267 268 269 270 271 273 274 275 276 276 276 277 278 279 280 281 282 282 283 284 285 287 289 290
225 226 227 227 228 229 231 232 232 232 231 230 229 227 226 227 229 230 232 233 234 236 236 236 237 239 239 240 244 246 245 245 246 247 247 247 248 249 251 252 253 253 254 255 256 257 258 259 259 260 259 259 259 260 260 261 262 263 264 265 266 266 267 268 270 271 272 273 274 275 275 276 277 277 278 279 280 281 282 283 284 286 288 289 290 291
224 224 224 224 227 229 230 230 230 230 229 228 228 228 226 227 228 230 231 233 234 236 236 236 237 237 237 237 239 242 243 244 246 248 249 250 250 251 252 253 253 253 254 255 256 257 257 258 258 259 259 259 259 260 261 262 262 263 264 265 266 267 268 269 270 271 272 273 274 275 275 276 277 278 279 280 281 282 283 285 287 288 289 290 291 292
223 223 223 222 223 226 227 229 230 229 230 229 229 229 228 228 229 230 232 233 234 235 236 236 237 237 237 239 240 243 247 249 250 250 251 253 253 253 253 253 254 255 256 256 256 256 256 257 258 258 259 260 261 261 262 262 263 263 264 265 266 267 268 269 270 271 272 273 274 275 275 277 278 279 280 281 282 284 285 287 289 290 290 291 292 292
221 222 223 222 223 224 225 227 228 229 230 231 230 230 231 232 233 235 235 235 236 238 239 240 241 241 242 245 246 248 251 252 252 252 253 254 254 253 253 252 253 255 257 258 258 258 258 257 257 257 258 258 260 261 261 262 262 263 264 264 265 267 268 270 271 272 272 273 274 275 277 278 279 280 281 283 284 286 287 289 289 290 291 291 292 292
222 223 224 224 225 226 226 227 228 230 232 232 232 234 236 237 238 239 239 240 241 243 243 245 246 247 247 248 248 249 251 252 252 252 252 252 252 252 252 251 252 253 255 257 258 258 258 257 257 256 257 257 258 259 260 261 262 262 263 265 266 267 269 270 271 272 273 274 275 276 278 279 280 281 283 285 286 287 288 289 290 290 291 291 291 291
226 226 228 228 229 231 231 231 232 233 234 235 236 239 241 241 241 242 243 244 245 246 247 247 248 248 248 247 246 246 248 250 252 252 251 252 252 252 253 253 253 254 254 254 255 255 256 256 257 257 258 258 259 259 260 261 262 263 264 266 267 268 269 270 272 273 274 275 277 278 279 280 282 283 285 286 287 288 288 289 290 290 290 290 290 290
228 230 231 231 232 233 234 234 235 236 236 236 237 239 241 243 244 245 245 245 245 245 246 247 247 247 248 248 247 247 248 249 251 252 253 253 253 253 254 254 254 254 253 253 254 255 256 256 257 258 259 260 260 261 263 264 264 265 266 267 268 270 271 272 273 274 275 277 278 279 280 282 283 284 285 286 287 287 288 289 289 289 290 289 289 290
224 227 229 230 232 233 235 237 237 238 238 237 237 240 242 244 246 247 247 245 245 247 248 248 249 250 251 250 250 250 249 249 249 250 251 252 252 253 254 254 255 255 255 255 255 255 256 257 257 258 259 260 262 263 264 265 265 266 268 269 270 271 272 273 274 275 276 277 279 280 281 282 283 284 285 286 286 287 287 288 288 288 288 288 289 289
223 225 226 229 231 233 237 240 242 245 244 238 236 239 241 243 246 249 249 246 245 247 248 248 248 249 250 250 250 250 249 248 247 247 250 253 254 254 255 255 255 256 256 256 257 257 257 258 258 259 260 261 262 263 264 265 266 267 269 270 271 272 273 274 275 276 277 278 280 280 281 282 283 284 285 285 286 286 286 287 287 287 287 288 289 289
230 231 232 234 236 237 239 242 245 247 241 232 234 243 247 248 249 251 251 247 243 247 249 247 247 248 249 249 250 251 251 251 249 248 252 256 257 256 256 256 256 257 257 258 258 259 259 260 260 261 261 262 263 264 265 266 267 268 269 270 272 273 274 275 276 277 278 279 280 281 281 282 283 283 284 284 285 285 285 286 286 287 287 288 288 289
230 232 233 235 237 238 239 241 244 246 242 238 244 249 250 250 248 250 251 247 243 247 251 251 250 250 250 250 251 252 253 253 251 251 255 257 257 257 257 256 256 256 257 258 259 260 261 261 262 263 264 264 265 266 266 267 268 269 270 271 272 273 275 276 277 278 278 279 280 280 281 282 282 282 283 283 284 284 285 285 286 287 287 288 288 289
227 228 230 233 236 238 239 241 243 245 245 247 249 246 245 247 245 245 248 248 246 247 249 250 251 251 251 251 251 252 254 254 253 253 255 256 257 257 258 258 258 258 258 258 259 260 261 262 263 264 264 265 265 266 266 267 269 270 271 272 273 274 276 277 277 278 279 279 280 280 280 281 281 282 282 283 283 284 284 285 286 286 287 288 289 290
231 232 234 236 239 240 241 244 246 245 245 248 249 245 243 243 242 245 249 253 253 250 247 248 250 251 252 253 252 253 254 254 254 254 254 256 256 257 258 259 259 259 259 259 260 260 261 261 262 263 264 265 266 267 268 269 270 271 272 273 274 276 277 277 278 278 278 279 279 279 280 280 281 281 282 282 283 283 284 285 286 286 287 288 289 291
235 237 238 239 241 243 245 247 248 245 242 245 249 249 247 245 246 250 252 252 253 252 250 249 249 250 251 253 253 253 253 253 254 254 256 257 257 258 258 259 260 260 261 261 262 262 263 263 264 264 265 266 267 268 269 270 271 272 274 275 276 276 276 277 277 277 278 278 278 279 280 280 280 280 281 282 282 283 284 285 286 287 288 289 290 292
236 238 240 241 243 245 246 247 248 246 244 247 252 254 254 254 253 252 249 248 250 251 252 252 251 249 248 250 252 253 253 254 255 255 256 258 259 260 260 261 261 262 262 263 263 264 264 265 265 266 266 267 268 269 270 271 273 274 275 275 276 276 276 276 276 277 277 278 278 279 279 280 280 281 281 282 283 284 285 286 288 288 289 290 291 292
235 237 240 242 244 245 246 249 252 252 250 250 251 254 257 258 256 252 249 247 247 248 250 252 252 251 249 249 251 253 254 255 256 256 257 258 259 261 262 263 263 263 263 264 264 265 265 266 267 267 268 269 269 270 271 272 273 274 274 275 275 275 275 276 276 277 278 278 279 279 280 280 281 282 283 284 285 286 287 287 288 288 289 290 291 292
238 240 243 245 246 248 250 252 254 252 250 250 249 249 251 252 253 252 252 250 249 249 249 251 253 254 254 253 253 254 256 257 257 258 259 259 260 260 261 262 263 264 264 265 265 266 267 267 268 269 270 270 271 271 272 272 273 274 274 274 275 275 276 277 277 278 278 279 279 280 281 282 282 283 284 285 286 286 286 286 287 287 289 290 291 292
241 243 244 245 247 249 249 249 249 249 250 251 252 252 252 252 253 253 254 253 253 252 251 251 252 253 254 254 254 254 255 257 258 259 259 260 260 261 261 262 263 264 265 265 266 266 267 268 269 269 270 271 272 272 273 273 274 274 275 275 275 276 277 277 278 278 279 279 280 281 281 282 283 283 284 284 285 285 285 285 286 288 289 290 291 292
239 241 243 244 246 247 247 247 249 251 251 251 254 256 257 257 256 256 256 255 254 253 252 251 251 252 254 255 255 255 255 256 258 259 260 261 261 262 262 263 264 264 265 266 267 268 268 269 269 270 271 271 272 273 273 274 274 275 275 275 276 276 277 277 278 279 279 280 281 281 282 282 282 283 283 283 283 284 285 286 287 288 289 290 291 292
238 240 243 245 247 248 248 248 250 252 252 252 254 255 257 258 259 259 259 259 258 257 256 256 255 255 256 257 258 259 258 258 258 259 261 262 263 263 264 264 265 265 266 266 267 268 268 269 269 270 270 271 271 272 273 273 274 274 274 275 275 276 277 277 278 279 280 280 281 281 281 281 282 282 282 283 284 285 286 287 287 288 289 290 292 293
239 240 242 245 247 249 249 249 251 253 254 255 255 257 258 259 260 261 261 261 262 262 262 261 261 261 260 261 261 262 262 262 262 261 261 261 261 262 262 262 263 263 264 264 265 266 267 267 268 269 270 270 271 271 272 272 273 273 273 274 275 276 277 278 279 279 280 280 280 280 281 281 281 282 283 284 285 285 286 287 287 289 290 291 292 293
241 243 244 246 248 249 250 251 253 254 255 256 257 258 259 260 261 262 262 262 262 262 263 263 263 264 264 265 266 267 267 267 266 266 265 263 262 261 261 261 261 262 262 263 264 265 266 267 268 269 270 271 272 272 273 273 273 274 275 276 277 277 278 278 279 279 279 279 280 280 280 281 282 283 284 284 285 285 286 287 288 290 291 292 292 293
243 245 246 248 250 251 251 252 253 254 255 255 255 256 258 259 260 261 262 262 263 263 263 264 264 264 265 267 268 268 269 268 268 267 267 267 266 265 265 264 264 264 265 265 266 267 267 268 269 269 270 271 272 273 274 275 276 277 277 278 278 278 278 278 278 278 279 279 280 280 281 282 283 283 284 284 285 286 287 288 289 290 291 291 292 293
Height
5770 5771 5774 5781 5787 5790 5792 5794 5797 5802 5805 5809 5813 5816 5820 5823 5827 5830 5833 5835 5837 5839 5842 5846 5849 5851 5852 5854 5855 5856 5858 5860 5863 5866 5868 5870 5872 5874 5875 5877 5878 5878 5879 5880 5882 5882 5883 5884 5885 5885 5886 5887 5887 5888 5888 5889 5889 5890 5890 5891 5891 5891 5892 5892 5892 5892 5891 5891 5891 5891 5890 5890 5890 5889 5889 5888 5888 5887 5887 5886 5886 5885 5885 5884 5884 5884
5764 5767 5775 5782 5786 5788 5789 5790 5794 5798 5801 5805 5809 5812 5816 5820 5824 5828 5830 5832 5834 5837 5840 5843 5845 5847 5849 5852 5852 5853 5856 5859 5862 5863 5865 5867 5869 5871 5873 5875 5876 5877 5878 5879 5880 5880 5881 5882 5883 5884 5884 5885 5886 5886 5887 5887 5887 5888 5888 5889 5889 5889 5889 5890 5890 5890 5890 5889 5889 5889 5889 5889 5888 5888 5887 5887 5886 5886 5885 5884 5884 5883 5883 5882 5882 5881
5760 5767 5776 5780 5782 5784 5785 5787 5791 5795 5799 5802 5805 5808 5812 5816 5820 5823 5826 5828 5831 5833 5836 5839 5841 5844 5846 5848 5849 5851 5855 5857 5859 5860 5862 5864 5867 5869 5871 5872 5874 5875 5876 5877 5877 5878 5879 5880 5881 5882 5883 5883 5884 5884 5885 5885 5886 5886 5886 5887 5887 5887 5887 5887 5887 5888 5888 5888 5888 5887 5887 5887 5886 5886 5886 5885 5884 5884 5883 5882 5882 5881 5881 5880 5879 5879
5761 5769 5774 5776 5778 5779 5781 5784 5787 5791 5795 5798 5802 5806 5809 5813 5817 5819 5822 5825 5827 5830 5833 5835 5838 5840 5842 5844 5846 5849 5853 5854 5855 5857 5859 5861 5865 5867 5868 5870 5871 5873 5874 5875 5875 5876 5877 5878 5879 5879 5880 5881 5882 5882 5883 5883 5884 5884 5884 5884 5885 5885 5885 5885 5885 5885 5885 5885 5885 5885 5885 5885 5884 5884 5884 5883 5882 5881 5881 5880 5879 5879 5878 5878 5877 5876
5761 5767 5770 5771 5772 5774 5776 5780 5783 5788 5792 5795 5799 5803 5807 5811 5814 5817 5820 5823 5825 5827 5830 5832 5834 5836 5837 5840 5844 5848 5850 5851 5852 5854 5857 5860 5862 5864 5866 5868 5869 5870 5871 5872 5873 5874 5874 5875 5876 5877 5878 5879 5880 5880 5880 5881 5882 5882 5882 5882 5883 5883 5883 5883 5883 5882 5882 5882 5882 5882 5882 5882 5881 5881 5881 5880 5880 5879 5879 5878 5877 5877 5876 5875 5874 5873
5757 5761 5764 5765 5767 5770 5772 5776 5781 5786 5789 5792 5796 5801 5805 5809 5812 5815 5817 5819 5821 5823 5827 5829 5829 5832 5835 5837 5842 5846 5846 5848 5850 5852 5855 5857 5859 5861 5863 5865 5866 5867 5869 5870 5871 5871 5872 5873 5874 5875 5875 5876 5877 5877 5878 5878 5879 5880 5880 5880 5880 5880 5880 5880 5880 5880 5880 5880 5880 5880 5879 5879 5879 5878 5878 5877 5877 5876 5876 5875 5875 5874 5873 5872 5871 5870
5752 5756 5758 5760 5763 5766 5769 5773 5778 5783 5786 5789 5794 5798 5802 5805 5809 5811 5814 5816 5817 5820 5824 5825 5826 5829 5833 5835 5839 5842 5843 5845 5847 5849 5852 5853 5855 5858 5861 5862 5863 5865 5866 5867 5868 5869 5870 5871 5872 5872 5873 5874 5874 5875 5875 5876 5876 5877 5877 5877 5878 5878 5878 5877 5877 5877 5877 5877 5877 5877 5877 5876 5876 5875 5875 5874 5873 5873 5873 5872 5871 5870 5870 5869 5868 5867
5749 5751 5752 5755 5759 5761 5765 5770 5776 5780 5783 5786 5792 5795 5798 5802 5806 5808 5811 5812 5814 5817 5820 5821 5823 5826 5829 5831 5835 5837 5840 5842 5844 5846 5849 5851 5854 5856 5858 5859 5861 5862 5863 5864 5866 5867 5868 5868 5869 5870 5871 5871 5872 5872 5873 5873 5874 5874 5874 5875 5875 5875 5875 5874 5874 5874 5874 5875 5875 5874 5874 5874 5873 5872 5871 5871 5870 5870 5870 5869 5868 5867 5866 5865 5864 5863
5746 5746 5749 5753 5755 5758 5764 5770 5775 5778 5780 5784 5788 5791 5795 5799 5803 5806 5808 5810 5812 5813 5815 5817 5819 5821 5824 5828 5831 5833 5836 5839 5841 5844 5847 5849 5852 5853 5854 5856 5858 5859 5860 5862 5863 5864 5865 5866 5866 5867 5868 5869 5869 5870 5870 5871 5871 5871 5872 5872 5872 5872 5872 5871 5871 5871 5871 5871 5871 5871 5871 5871 5870 5869 5868 5868 5867 5867 5866 5865 5865 5864 5863 5862 5861 5860
5741 5742 5745 5748 5751 5757 5764 5768 5771 5774 5777 5780 5784 5787 5791 5795 5799 5802 5804 5806 5808 5808 5811 5814 5816 5816 5820 5825 5827 5828 5833 5837 5840 5843 5844 5846 5848 5849 5851 5853 5855 5856 5857 5859 5860 5861 5862 5863 5864 5865 5865 5866 5867 5867 5868 5868 5868 5869 5869 5869 5869 5869 5869 5869 5868 5868 5868 5868 5868 5868 5868 5867 5867 5866 5865 5865 5864 5863 5863 5862 5861 5860 5859 5858 5857 5856
5736 5738 5740 5743 5748 5755 5759 5762 5766 5770 5773 5777 5780 5783 5787 5791 5795 5797 5799 5802 5802 5802 5807 5810 5812 5812 5815 5820 5823 5825 5830 5835 5837 5839 5840 5842 5844 5846 5848 5849 5851 5852 5854 5856 5857 5859 5860 5860 5861 5862 5862 5863 5863 5864 5864 5865 5865 5866 5866 5866 5867 5867 5866 5866 5866 5865 5865 5865 5865 5865 5864 5864 5863 5863 5862 5861 5861 5860 5859 5859 5858 5857 5855 5854 5853 5852
5732 5734 5737 5740 5745 5749 5752 5755 5761 5765 5768 5772 5776 5779 5783 5786 5790 5792 5795 5797 5796 5798 5804 5807 5808 5808 5809 5815 5821 5823 5827 5831 5833 5835 5837 5839 5840 5842 5844 5845 5847 5849 5850 5852 5854 5855 5857 5857 5858 5858 5859 5860 5860 5861 5862 5862 5862 5862 5863 5863 5863 5863 5863 5863 5863 5862 5862 5862 5861 5861 5860 5860 5860 5859 5858 5858 5857 5856 5855 5854 5854 5853 5851 5850 5849 5847
5729 5732 5735 5737 5741 5744 5746 5749 5754 5758 5763 5767 5771 5774 5778 5781 5784 5787 5789 5792 5792 5795 5801 5803 5803 5803 5804 5811 5818 5820 5823 5826 5829 5832 5834 5836 5837 5838 5840 5842 5844 5846 5847 5849 5850 5852 5853 5854 5855 5855 5855 5856 5857 5858 5858 5859 5859 5859 5859 5859 5860 5860 5860 5859 5859 5859 5859 5858 5858 5857 5857 5856 5855 5855 5854 5853 5853 5852 5851 5850 5849 5848 5847 5846 5844 5843
5725 5729 5732 5734 5736 5739 5742 5744 5748 5753 5758 5762 5766 5769 5772 5775 5778 5781 5784 5787 5788 5791 5796 5799 5799 5798 5800 5807 5814 5817 5821 5823 5825 5828 5830 5832 5834 5835 5837 5839 5841 5843 5844 5846 5847 5848 5849 5850 5851 5852 5852 5853 5853 5854 5855 5855 5856 5856 5856 5856 5856 5856 5856 5856 5856 5855 5855 5855 5854 5853 5853 5852 5851 5850 5850 5849 5848 5847 5846 5845 5844 5843 5842 5841 5839 5838
5723 5726 5729 5732 5733 5736 5739 5742 5747 5752 5756 5759 5763 5766 5769 5772 5775 5778 5781 5784 5786 5788 5792 5795 5795 5794 5797 5805 5811 5815 5818 5821 5823 5825 5827 5829 5831 5832 5834 5835 5837 5839 5840 5842 5843 5844 5845 5846 5847 5848 5849 5849 5850 5850 5851 5851 5852 5852 5852 5852 5853 5853 5853 5852 5852 5852 5851 5851 5850 5849 5849 5848 5847 5846 5845 5845 5844 5843 5842 5841 5840 5838 5837 5836 5835 5833
5720 5724 5728 5729 5731 5734 5737 5739 5743 5747 5751 5754 5758 5761 5765 5769 5774 5777 5781 5783 5786 5787 5789 5791 5792 5793 5796 5803 5809 5813 5815 5818 5820 5822 5824 5825 5827 5828 5830 5831 5833 5835 5836 5837 5838 5840 5841 5842 5843 5844 5845 5846 5846 5847 5847 5848 5848 5848 5849 5849 5849 5849 5849 5849 5848 5848 5847 5847 5846 5846 5845 5844 5843 5842 5841 5841 5840 5839 5837 5836 5835 5834 5833 5831 5830 5829
5717 5721 5724 5726 5728 5730 5733 5735 5738 5741 5744 5749 5753 5756 5762 5767 5769 5773 5776 5779 5781 5782 5783 5786 5788 5791 5794 5798 5804 5809 5811 5813 5816 5818 5820 5821 5823 5825 5826 5827 5829 5831 5832 5833 5834 5836 5837 5838 5839 5840 5841 5842 5842 5843 5843 5844 5844 5844 5845 5845 5845 5845 5845 5845 5844 5844 5843 5843 5842 5842 5841 5840 5839 5838 5837 5836 5835 5834 5833 5832 5831 5829 5828 5827 5825 5824
5714 5717 5720 5722 5724 5726 5729 5731 5735 5737 5740 5744 5748 5753 5759 5761 5763 5768 5770 5772 5774 5776 5777 5780 5783 5787 5789 5792 5798 5803 5806 5809 5812 5815 5817 5818 5820 5821 5822 5823 5824 5826 5827 5828 5830 5831 5833 5834 5835 5836 5837 5837 5838 5839 5839 5840 5840 5840 5841 5841 5841 5841 5841 5841 5840 5840 5839 5839 5838 5837 5836 5835 5835 5834 5833 5832 5831 5830 5828 5827 5826 5824 5823 5822 5820 5819
5711 5713 5715 5717 5719 5722 5724 5726 5729 5733 5736 5741 5746 5750 5753 5755 5759 5763 5764 5766 5770 5771 5773 5775 5778 5781 5784 5788 5794 5799 5803 5806 5809 5810 5813 5815 5816 5817 5818 5819 5820 5821 5823 5824 5826 5827 5828 5830 5831 5831 5832 5833 5834 5834 5835 5836 5836 5836 5837 5837 5837 5837 5837 5836 5836 5835 5835 5834 5834 5833 5832 5831 5830 5829 5828 5827 5826 5824 5823 5822 5821 5819 5818 5816 5815 5813
5706 5709 5711 5714 5716 5717 5718 5721 5724 5728 5732 5737 5741 5744 5749 5753 5756 5759 5762 5765 5767 5769 5771 5773 5774 5778 5783 5787 5792 5796 5800 5803 5805 5807 5809 5810 5812 5813 5814 5815 5816 5817 5819 5820 5822 5823 5824 5825 5826 5827 5827 5828 5829 5830 5830 5831 5831 5832 5832 5832 5832 5832 5832 5832 5831 5831 5830 5829 5829 5828 5827 5826 5825 5824 5823 5821 5820 5819 5818 5817 5816 5814 5813 5811 5809 5808
5702 5704 5707 5709 5711 5713 5715 5718 5722 5725 5729 5732 5735 5739 5743 5747 5750 5754 5758 5761 5763 5766 5768 5769 5770 5775 5781 5786 5789 5792 5796 5798 5800 5803 5804 5805 5807 5809 5810 5811 5812 5814 5815 5816 5817 5818 5820 5820 5821 5822 5823 5824 5825 5825 5826 5826 5827 5827 5827 5827 5827 5827 5827 5826 5826 5825 5825 5824 5823 5823 5822 5821 5820 5818 5817 5816 5815 5814 5813 5812 5810 5809 5807 5805 5804 5802
5698 5701 5702 5705 5707 5710 5714 5717 5719 5721 5725 5729 5733 5736 5740 5743 5746 5748 5752 5755 5758 5761 5762 5763 5766 5772 5778 5783 5786 5788 5791 5794 5796 5798 5800 5801 5803 5804 5805 5806 5808 5809 5811 5812 5813 5814 5815 5815 5816 5817 5818 5819 5820 5820 5821 5821 5822 5822 5822 5822 5822 5821 5821 5821 5820 5820 5819 5819 5818 5817 5816 5815 5814 5813 5812 5811 5810 5809 5808 5806 5805 5803 5802 5800 5798 5797
5694 5697 5698 5701 5704 5708 5710 5712 5715 5717 5721 5725 5728 5733 5737 5740 5742 5745 5748 5752 5755 5755 5757 5760 5764 5769 5774 5779 5783 5785 5787 5789 5792 5794 5795 5797 5798 5799 5800 5801 5803 5805 5806 5807 5808 5809 5810 5811 5812 5813 5814 5814 5815 5815 5816 5816 5816 5817 5817 5816 5816 5816 5816 5815 5815 5815 5814 5813 5813 5812 5811 5810 5809 5808 5807 5806 5805 5804 5802 5801 5800 5798 5796 5795 5793 5791
5691 5692 5693 5697 5700 5703 5706 5708 5712 5714 5717 5720 5724 5729 5732 5734 5739 5741 5744 5748 5750 5751 5755 5758 5760 5765 5770 5775 5779 5781 5783 5785 5787 5789 5790 5791 5792 5793 5795 5796 5798 5799 5801 5802 5803 5804 5805 5806 5807 5808 5809 5809 5810 5810 5811 5811 5811 5811 5811 5811 5811 5810 5810 5810 5810 5809 5809 5808 5807 5806 5805 5804 5803 5802 5802 5801 5799 5798 5797 5795 5794 5792 5791 5789 5787 5785
5686 5687 5689 5692 5694 5697 5700 5703 5707 5710 5713 5716 5720 5724 5726 5729 5733 5734 5737 5741 5742 5746 5750 5751 5754 5760 5765 5770 5774 5776 5778 5780 5782 5783 5785 5786 5787 5788 5790 5792 5793 5794 5795 5796 5797 5799 5800 5801 5802 5803 5803 5804 5805 5805 5805 5806 5806 5805 5805 5805 5805 5805 5805 5805 5805 5804 5803 5802 5801 5801 5800 5799 5798 5797 5796 5795 5794 5793 5791 5790 5788 5787 5785 5783 5781 5779
5683 5684 5686 5688 5689 5693 5697 5700 5703 5706 5708 5710 5714 5718 5721 5725 5727 5730 5734 5735 5736 5741 5744 5745 5751 5758 5762 5767 5769 5771 5774 5776 5777 5779 5780 5781 5782 5784 5785 5786 5788 5789 5790 5791 5792 5793 5794 5795 5796 5798 5798 5799 5799 5800 5800 5800 5800 5800 5800 5800 5800 5800 5800 5799 5799 5798 5798 5797 5796 5795 5794 5794 5793 5791 5790 5789 5788 5787 5785 5784 5782 5781 5779 5777 5774 5772
5680 5681 5684 5687 5690 5694 5698 5701 5703 5706 5706 5707 5711 5716 5719 5722 5725 5728 5729 5729 5735 5739 5740 5743 5751 5755 5760 5764 5765 5767 5770 5772 5773 5775 5776 5777 5777 5778 5779 5781 5782 5783 5784 5785 5787 5788 5789 5791 5792 5793 5793 5793 5793 5794 5794 5794 5794 5795 5795 5795 5795 5795 5794 5794 5793 5792 5792 5791 5790 5790 5789 5788 5787 5785 5784 5783 5782 5781 5779 5778 5776 5774 5772 5770 5768 5766
5676 5678 5682 5685 5688 5692 5695 5698 5701 5705 5706 5709 5712 5714 5718 5720 5722 5723 5724 5728 5735 5735 5735 5744 5750 5752 5757 5761 5761 5763 5767 5767 5769 5770 5770 5771 5772 5772 5774 5776 5777 5778 5779 5780 5781 5783 5784 5786 5787 5787 5788 5787 5788 5788 5788 5789 5789 5789 5790 5789 5789 5789 5788 5788 5787 5787 5786 5786 5785 5784 5783 5782 5781 5780 5778 5777 5776 5774 5773 5771 5769 5767 5765 5763 5761 5759
5673 5676 5679 5682 5684 5686 5689 5693 5696 5699 5703 5706 5708 5711 5714 5716 5717 5719 5722 5728 5731 5729 5734 5745 5748 5748 5753 5757 5756 5758 5760 5761 5763 5763 5764 5766 5767 5769 5770 5772 5772 5773 5774 5775 5776 5778 5779 5780 5781 5781 5781 5781 5782 5782 5783 5784 5784 5784 5784 5784 5783 5783 5782 5782 5781 5781 5780 5780 5779 5778 5777 5776 5775 5774 5772 5771 5769 5768 5766 5764 5762 5760 5758 5756 5754 5752
5671 5673 5675 5678 5681 5683 5685 5688 5691 5694 5697 5700 5702 5705 5707 5709 5712 5715 5718 5723 5724 5725 5731 5739 5738 5740 5745 5749 5751 5752 5753 5756 5758 5758 5760 5763 5764 5766 5766 5766 5766 5766 5768 5770 5771 5772 5773 5774 5774 5774 5774 5776 5776 5777 5778 5778 5778 5778 5778 5778 5777 5777 5776 5776 5775 5775 5774 5774 5773 5772 5771 5770 5769 5767 5766 5764 5763 5761 5759 5757 5755 5753 5751 5749 5747 5744
5667 5669 5671 5674 5676 5678 5681 5684 5687 5690 5692 5694 5696 5699 5701 5704 5707 5709 5713 5717 5717 5719 5725 5729 5728 5733 5740 5745 5748 5749 5750 5753 5754 5754 5756 5758 5759 5761 5761 5760 5760 5760 5762 5764 5765 5766 5767 5768 5768 5769 5769 5770 5771 5772 5772 5772 5772 5772 5772 5771 5771 5770 5770 5770 5769 5769 5768 5767 5767 5766 5765 5763 5762 5761 5759 5757 5755 5753 5751 5750 5748 5746 5744 5741 5739 5736
5662 5664 5667 5670 5672 5674 5677 5680 5682 5686 5688 5688 5690 5693 5697 5700 5703 5706 5709 5712 5713 5717 5722 5723 5724 5733 5741 5744 5745 5747 5747 5747 5747 5749 5752 5752 5752 5753 5753 5753 5754 5755 5756 5758 5759 5760 5761 5762 5762 5763 5764 5764 5765 5765 5766 5765 5765 5765 5765 5764 5764 5764 5764 5764 5763 5763 5762 5761 5760 5759 5758 5757 5755 5754 5752 5750 5748 5746 5744 5743 5741 5738 5736 5733 5731 5728
5659 5661 5663 5666 5669 5671 5674 5676 5679 5682 5682 5682 5686 5692 5695 5698 5701 5703 5706 5709 5712 5716 5718 5720 5725 5733 5737 5739 5741 5742 5740 5740 5741 5743 5745 5744 5745 5745 5745 5746 5748 5750 5752 5752 5753 5754 5755 5755 5756 5757 5757 5758 5759 5759 5759 5758 5759 5759 5758 5758 5758 5758 5758 5757 5757 5756 5756 5755 5754 5753 5751 5750 5748 5746 5744 5743 5741 5739 5737 5735 5733 5730 5728 5725 5722 5720
5657 5659 5661 5664 5667 5668 5671 5674 5676 5676 5676 5681 5688 5692 5693 5695 5697 5700 5703 5707 5710 5712 5713 5717 5721 5725 5727 5731 5734 5734 5733 5733 5734 5735 5736 5737 5737 5738 5739 5741 5743 5745 5747 5747 5747 5748 5748 5749 5750 5751 5751 5752 5752 5752 5752 5752 5752 5752 5752 5752 5752 5752 5752 5751 5751 5750 5749 5748 5747 5746 5744 5742 5741 5739 5737 5736 5734 5732 5729 5727 5725 5722 5720 5717 5714 5711
5655 5658 5659 5662 5663 5664 5667 5669 5669 5670 5676 5683 5686 5687 5688 5691 5694 5696 5699 5702 5705 5705 5708 5711 5714 5717 5720 5724 5727 5727 5728 5728 5727 5728 5729 5730 5730 5732 5733 5736 5738 5739 5740 5740 5741 5742 5743 5744 5744 5745 5745 5745 5745 5745 5745 5746 5746 5746 5746 5746 5746 5746 5746 5745 5744 5743 5742 5741 5740 5738 5737 5735 5733 5732 5730 5728 5726 5724 5722 5719 5717 5715 5712 5709 5706 5703
5650 5652 5654 5656 5658 5660 5662 5663 5664 5669 5675 5679 5681 5683 5686 5689 5691 5692 5693 5696 5699 5701 5703 5706 5710 5713 5715 5717 5720 5720 5720 5720 5720 5720 5722 5722 5723 5726 5728 5730 5732 5732 5732 5734 5735 5736 5736 5737 5738 5739 5739 5739 5739 5740 5740 5740 5740 5740 5740 5740 5740 5739 5739 5738 5737 5736 5735 5734 5732 5731 5729 5727 5726 5724 5722 5720 5718 5716 5714 5711 5709 5707 5704 5701 5698 5695
5643 5645 5649 5651 5653 5656 5659 5659 5663 5668 5670 5673 5677 5680 5683 5685 5686 5687 5687 5690 5694 5697 5698 5702 5705 5707 5708 5710 5711 5710 5710 5710 5711 5714 5717 5717 5718 5720 5722 5724 5725 5724 5726 5727 5727 5728 5729 5730 5731 5732 5732 5733 5733 5733 5733 5733 5733 5733 5733 5733 5733 5732 5732 5731 5730 5729 5727 5726 5724 5723 5721 5719 5718 5716 5714 5712 5710 5707 5705 5703 5701 5699 5696 5693 5690 5687
5641 5643 5647 5649 5650 5654 5656 5657 5660 5662 5664 5671 5676 5677 5678 5680 5682 5681 5680 5684 5690 5693 5694 5696 5699 5700 5701 5702 5702 5702 5702 5702 5704 5711 5715 5712 5711 5713 5715 5716 5717 5718 5719 5719 5720 5721 5722 5722 5724 5725 5725 5726 5727 5727 5727 5726 5726 5726 5726 5726 5726 5725 5724 5724 5722 5721 5720 5718 5716 5715 5713 5711 5709 5708 5706 5703 5701 5699 5697 5695 5693 5690 5688 5686 5682 5679
5638 5641 5644 5645 5646 5649 5652 5653 5656 5658 5662 5668 5673 5674 5674 5675 5676 5675 5674 5679 5687 5689 5689 5690 5692 5692 5693 5694 5694 5694 5694 5695 5701 5709 5709 5704 5703 5706 5707 5709 5710 5711 5712 5713 5713 5714 5715 5715 5717 5717 5718 5719 5720 5719 5719 5718 5718 5718 5719 5719 5718 5717 5717 5716 5715 5713 5711 5710 5708 5706 5705 5703 5701 5699 5697 5695 5693 5691 5689 5687 5685 5682 5680 5677 5674 5671
5634 5637 5638 5639 5642 5646 5648 5649 5652 5657 5661 5664 5667 5669 5669 5670 5670 5668 5669 5677 5683 5684 5684 5684 5684 5685 5686 5688 5688 5688 5689 5692 5697 5700 5698 5695 5696 5699 5700 5701 5703 5704 5706 5707 5707 5708 5709 5709 5710 5711 5711 5712 5711 5711 5711 5710 5711 5711 5711 5711 5710 5710 5709 5708 5706 5705 5703 5701 5700 5698 5696 5695 5692 5691 5689 5687 5685 5683 5681 5679 5677 5674 5671 5669 5666 5663
5630 5632 5634 5637 5640 5643 5645 5647 5650 5655 5659 5660 5661 5663 5664 5664 5663 5664 5669 5675 5676 5676 5678 5678 5677 5680 5681 5681 5683 5684 5685 5687 5689 5689 5688 5689 5690 5692 5693 5694 5696 5697 5699 5700 5701 5702 5702 5703 5704 5704 5704 5704 5704 5704 5703 5703 5703 5703 5703 5703 5702 5702 5701 5699 5697 5696 5694 5692 5691 5689 5688 5686 5684 5682 5681 5679 5677 5675 5673 5671 5669 5666 5663 5661 5658 5655
5626 5628 5630 5633 5636 5638 5641 5643 5645 5650 5655 5657 5655 5655 5656 5657 5659 5663 5669 5669 5667 5669 5671 5671 5672 5675 5676 5675 5677 5679 5679 5680 5682 5682 5682 5682 5683 5685 5686 5687 5688 5690 5691 5692 5693 5695 5695 5696 5697 5697 5697 5697 5696 5696 5696 5695 5695 5695 5694 5694 5694 5693 5691 5690 5688 5687 5685 5684 5683 5681 5680 5678 5676 5675 5673 5671 5669 5667 5665 5663 5660 5658 5655 5652 5649 5647
5622 5624 5626 5629 5632 5634 5635 5637 5640 5647 5653 5654 5650 5648 5649 5652 5657 5660 5662 5662 5662 5664 5664 5664 5667 5669 5670 5671 5671 5672 5673 5675 5676 5676 5676 5676 5677 5678 5679 5680 5682 5683 5684 5685 5686 5686 5687 5688 5688 5688 5689 5689 5688 5688 5687 5687 5687 5686 5686 5685 5684 5683 5682 5681 5680 5679 5677 5676 5675 5673 5672 5670 5668 5666 5664 5662 5660 5658 5656 5654 5651 5649 5646 5644 5641 5639
5615 5618 5621 5625 5627 5627 5628 5632 5638 5645 5647 5646 5645 5644 5644 5646 5649 5651 5653 5655 5657 5658 5658 5659 5660 5661 5664 5667 5667 5667 5668 5669 5670 5671 5671 5672 5672 5673 5673 5674 5675 5675 5676 5677 5678 5678 5679 5679 5679 5679 5680 5680 5680 5679 5679 5679 5678 5678 5677 5677 5676 5675 5674 5673 5672 5671 5669 5668 5667 5665 5663 5662 5659 5657 5655 5653 5651 5649 5647 5645 5643 5640 5638 5636 5633 5631
5611 5615 5618 5620 5621 5621 5624 5630 5634 5636 5637 5637 5638 5638 5638 5639 5641 5643 5646 5648 5651 5653 5654 5655 5654 5655 5658 5661 5662 5663 5663 5663 5664 5665 5665 5666 5667 5667 5668 5668 5668 5668 5669 5670 5670 5671 5671 5671 5671 5671 5671 5671 5671 5671 5670 5670 5670 5670 5669 5668 5667 5667 5666 5665 5664 5663 5661 5660 5658 5656 5655 5653 5651 5649 5647 5644 5642 5640 5638 5636 5635 5632 5630 5628 5625 5623
5609 5611 5612 5614 5615 5616 5620 5625 5627 5628 5629 5630 5630 5630 5632 5633 5635 5637 5640 5642 5645 5647 5649 5650 5650 5651 5652 5654 5656 5658 5657 5657 5658 5658 5659 5660 5660 5660 5661 5662 5661 5662 5662 5662 5663 5663 5663 5663 5663 5663 5663 5662 5662 5662 5662 5662 5662 5662 5661 5660 5660 5659 5658 5657 5655 5654 5653 5651 5650 5648 5646 5644 5642 5640 5638 5636 5634 5632 5630 5629 5627 5624 5622 5619 5617 5615
5603 5605 5605 5607 5609 5610 5614 5619 5621 5621 5623 5623 5623 5623 5624 5625 5628 5630 5632 5634 5637 5640 5642 5644 5645 5645 5645 5646 5648 5650 5651 5652 5652 5652 5652 5653 5653 5654 5655 5655 5655 5655 5655 5655 5655 5655 5655 5656 5655 5655 5655 5655 5654 5654 5654 5654 5654 5653 5653 5652 5651 5650 5649 5648 5647 5646 5644 5643 5641 5639 5638 5636 5634 5632 5629 5628 5626 5624 5622 5620 5618 5616 5613 5611 5608 5606
5598 5599 5599 5601 5603 5605 5609 5613 5614 5614 5616 5617 5617 5617 5616 5617 5619 5621 5623 5626 5628 5631 5634 5636 5638 5639 5640 5640 5641 5642 5644 5645 5646 5647 5647 5647 5647 5647 5648 5648 5649 5649 5648 5648 5648 5648 5648 5647 5647 5647 5647 5647 5647 5647 5646 5646 5645 5645 5644 5643 5643 5642 5641 5640 5639 5637 5636 5634 5632 5631 5629 5627 5625 5623 5621 5619 5617 5615 5613 5611 5609 5606 5604 5602 5599 5596
5590 5591 5593 5595 5596 5598 5603 5607 5608 5608 5609 5611 5611 5610 5610 5610 5612 5613 5616 5618 5620 5623 5625 5627 5629 5630 5632 5632 5633 5634 5635 5637 5638 5640 5640 5640 5641 5641 5641 5641 5642 5641 5641 5641 5641 5640 5640 5639 5639 5639 5639 5639 5639 5639 5638 5638 5637 5637 5636 5635 5634 5634 5633 5632 5630 5629 5627 5626 5624 5622 5620 5618 5616 5615 5613 5611 5609 5606 5604 5602 5600 5597 5595 5592 5589 5586
5583 5585 5588 5589 5589 5592 5598 5602 5602 5602 5602 5604 5605 5605 5604 5604 5605 5606 5608 5610 5612 5614 5616 5618 5620 5621 5622 5623 5624 5626 5626 5628 5629 5630 5631 5631 5632 5632 5633 5633 5634 5634 5634 5634 5634 5634 5633 5632 5632 5632 5631 5630 5630 5630 5629 5629 5629 5628 5628 5627 5626 5626 5624 5623 5621 5620 5618 5617 5615 5613 5612 5610 5608 5606 5604 5602 5600 5598 5595 5593 5591 5588 5585 5581 5578 5575
5576 5579 5581 5582 5583 5587 5592 5594 5593 5594 5595 5597 5598 5598 5597 5597 5598 5598 5600 5602 5604 5606 5608 5610 5612 5613 5614 5615 5616 5617 5618 5619 5620 5621 5621 5622 5622 5623 5624 5625 5626 5626 5626 5626 5627 5626 5626 5625 5625 5624 5623 5623 5622 5622 5621 5620 5620 5619 5619 5618 5617 5616 5615 5614 5612 5611 5609 5608 5606 5605 5603 5601 5600 5598 5596 5594 5591 5589 5586 5583 5581 5578 5575 5571 5568 5565